Location: McCloud Nature Park
(39.8272°N, 86.6824°W)
Time: 18:16:34
(UTC-06:00)

Amateur Radio Satellites - All Passes

Search period start: 24 February 2017 17:46
Search period end: 25 February 2017 17:46
Location: McCloud Nature Park, 39.8272°N, 86.6824°W

Satellite Date Start Highest point End Downlink Frequencies (MHz)
Time Altitude Azimuth
CUBESAT XI-V 24 Feb 17:47:49 17:51:08 20° 294° (WNW) 17:54:25 437.345
XW-2A 24 Feb 17:47:57 17:50:58 30° 72° (ENE) 17:54:00 145.665 - 145.685
CUTE-I 24 Feb 17:49:52 17:54:59 47° 261° (W) 18:00:08 437.470
STRAND 1 24 Feb 17:52:19 17:54:19 12° 90° (E) 17:56:19 437.568
NUDT-PHONESAT 24 Feb 17:54:30 17:57:53 31° 263° (W) 18:01:18 437.300
LilacSat-2 24 Feb 17:55:36 17:58:50 25° 264° (W) 18:02:06 437.200
NO-84 24 Feb 18:00:56 18:03:43 23° 330° (NNW) 18:06:42 435.350 FM
CUTE 1.7 + AOD 2 24 Feb 18:04:21 18:08:17 36° 71° (ENE) 18:12:13 437.475
STARS 24 Feb 18:05:04 18:07:57 17° 295° (WNW) 18:10:50 437.465
HO-68 24 Feb 18:11:50 18:18:54 65° 70° (ENE) 18:25:59 435.675
CUBEBUG 2 24 Feb 18:14:20 18:17:44 22° 67° (ENE) 18:21:14 437.445
AO-73 24 Feb 18:31:27 18:32:59 12° 62° (ENE) 18:34:32 145.935
Oscar 11 24 Feb 18:39:13 18:40:48 12° 63° (ENE) 18:42:23 .
M-CUBED/EXP-1 PRIME 24 Feb 18:50:55 18:51:11 10° 300° (WNW) 18:51:28 437.505
UWE-3 24 Feb 18:52:46 18:56:47 35° 71° (ENE) 19:00:57 435.000/436.395/437.385
AAUSAT CUBESAT 2 24 Feb 18:54:55 18:58:51 43° 73° (ENE) 19:02:48 437.432
SEEDS 24 Feb 19:02:54 19:07:08 72° 259° (W) 19:11:21 437.485
ZACube-1 24 Feb 19:15:37 19:19:41 37° 71° (ENE) 19:23:51 437.345
XW-2A 24 Feb 19:22:12 19:23:50 13° 267° (W) 19:25:27 145.665 - 145.685
STRAND 1 24 Feb 19:28:52 19:34:02 75° 286° (WNW) 19:39:08 437.568
CUTE 1.7 + AOD 2 24 Feb 19:41:14 19:44:12 18° 267° (W) 19:47:11 437.475
CUBEBUG 2 24 Feb 19:50:08 19:54:07 34° 264° (W) 19:58:15 437.445
RS-15 24 Feb 19:51:39 20:02:06 32° 328° (NNW) 20:12:48 29.354- 29.394
HO-68 24 Feb 20:01:39 20:07:05 23° 267° (W) 20:12:32 435.675
AO-73 24 Feb 20:04:09 20:08:34 71° 259° (W) 20:13:06 145.935
Oscar 11 24 Feb 20:12:03 20:16:22 65° 259° (W) 20:20:43 .
UWE-3 24 Feb 20:29:59 20:33:19 21° 267° (W) 20:36:45 435.000/436.395/437.385
AAUSAT CUBESAT 2 24 Feb 20:32:11 20:34:31 14° 268° (W) 20:36:50 437.432
DELFI C3 24 Feb 20:34:20 20:38:16 69° 75° (ENE) 20:42:13 145.870
YUBILEINY 24 Feb 20:42:00 20:50:24 49° 76° (ENE) 20:58:42 435.215
UNISAT 6 24 Feb 20:52:41 20:55:45 17° 92° (E) 20:58:47 437.425
ZACube-1 24 Feb 20:52:49 20:56:04 20° 267° (W) 20:59:23 437.345
TIGRISAT 24 Feb 20:53:21 20:56:15 16° 91° (E) 20:59:06 435.000
PRISM 24 Feb 20:55:05 20:58:55 39° 99° (E) 21:02:44 437.425
NO-84 24 Feb 21:21:18 21:21:55 10° 13° (NNE) 21:22:32 435.350 FM
LO-87 24 Feb 21:30:53 21:34:06 34° 73° (ENE) 21:37:21 145.935 - 145.965
SO-50 24 Feb 21:52:22 21:57:01 68° 119° (ESE) 22:01:38 436.795
FO-29 24 Feb 21:53:28 22:00:34 41° 95° (E) 22:07:01 435.910
ESTCUBE 1 24 Feb 22:04:10 22:08:30 48° 73° (ENE) 22:12:51 437.505/2401.250
RS-15 24 Feb 22:11:38 22:20:17 21° 3° (N) 22:28:53 29.354- 29.394
POLYITAN 1 24 Feb 22:19:26 22:20:37 11° 90° (E) 22:21:48 437.675
QB50P2 24 Feb 22:21:39 22:23:37 13° 91° (E) 22:25:34 145.880/145.840
UNISAT 6 24 Feb 22:28:10 22:32:40 47° 288° (WNW) 22:37:07 437.425
TIGRISAT 24 Feb 22:28:38 22:33:11 50° 287° (WNW) 22:37:40 435.000
DX 1 24 Feb 22:28:41 22:30:41 13° 63° (ENE) 22:32:41 434.975-435.025
PRISM 24 Feb 22:31:20 22:33:53 16° 294° (WNW) 22:36:25 437.425
VELOX 1 24 Feb 22:32:50 22:36:42 32° 70° (ENE) 22:40:36 145.980
AIST 2D 24 Feb 22:34:37 22:37:38 26° 96° (E) 22:40:38 435.315
O/OREOS (USA 219) 24 Feb 22:38:38 22:43:05 76° 292° (WNW) 22:47:36 437.305
YUBILEINY 24 Feb 22:39:15 22:46:52 35° 275° (W) 22:54:27 435.215
UKube-1 24 Feb 22:42:05 22:44:04 13° 63° (ENE) 22:46:02 .
SPROUT 24 Feb 22:45:38 22:49:29 34° 71° (ENE) 22:53:20 437.525
NO-84 24 Feb 22:57:09 23:00:43 28° 33° (NNE) 23:04:28 435.350 FM
LO-87 24 Feb 23:06:06 23:07:41 13° 268° (W) 23:09:18 145.935 - 145.965
DUCHIFAT 1 24 Feb 23:25:06 23:29:18 53° 100° (E) 23:33:27 145.980
SO-50 24 Feb 23:34:51 23:37:56 17° 317° (NW) 23:40:59 436.795
50 SAT 24 Feb 23:34:57 23:38:26 65° 260° (W) 23:41:55 437.505
EO-79 24 Feb 23:35:07 23:39:26 84° 103° (ESE) 23:43:43 145.935-145.965
FO-29 24 Feb 23:38:28 23:45:28 40° 295° (WNW) 23:51:54 435.910
ESTCUBE 1 24 Feb 23:42:53 23:45:32 15° 268° (W) 23:48:12 437.505/2401.250
POLYITAN 1 24 Feb 23:52:31 23:56:47 61° 285° (WNW) 00:01:00 437.675
NANOSAT C BR1 24 Feb 23:52:33 23:56:48 66° 285° (WNW) 00:01:02 145.865
QB50P2 24 Feb 23:55:31 23:59:42 52° 287° (WNW) 00:03:51 145.880/145.840
DX 1 25 Feb 00:02:07 00:06:22 57° 259° (W) 00:10:38 434.975-435.025
AIST 2D 25 Feb 00:08:15 00:10:41 17° 291° (WNW) 00:13:05 435.315
VELOX 1 25 Feb 00:09:48 00:13:11 22° 265° (W) 00:16:35 145.980
PCSat 25 Feb 00:14:01 00:18:44 29° 51° (NE) 00:23:24 145.827
UKube-1 25 Feb 00:15:22 00:19:35 57° 259° (W) 00:23:51 .
BEESAT 25 Feb 00:15:44 00:16:07 10° 59° (ENE) 00:16:30 436.000
SPROUT 25 Feb 00:22:24 00:25:27 19° 266° (W) 00:28:32 437.525
BUGSAT 1 25 Feb 00:24:28 00:28:44 87° 103° (ESE) 00:33:00 437.445
RS-15 25 Feb 00:26:44 00:37:57 37° 37° (NE) 00:48:48 29.354- 29.394
NO-84 25 Feb 00:34:31 00:38:36 48° 229° (SW) 00:42:50 435.350 FM
DUCHIFAT 1 25 Feb 01:02:21 01:04:30 14° 296° (WNW) 01:06:38 145.980
Oscar 19 25 Feb 01:10:34 01:15:41 66° 102° (ESE) 01:20:46 437.125/150
SRMSAT 25 Feb 01:12:23 01:13:03 10° 179° (S) 01:13:43 437.500
ITUPSAT 1 25 Feb 01:41:24 01:46:10 75° 75° (ENE) 01:51:00 437.325
ITAMSAT 1 25 Feb 01:45:24 01:47:40 13° 90° (E) 01:49:56 435.822/435.867
BEESAT 25 Feb 01:48:19 01:53:07 89° 65° (ENE) 01:57:56 436.000
Gurwin Techsat 1B 25 Feb 01:51:23 01:56:45 87° 107° (ESE) 02:02:05 435.225
PCSat 25 Feb 01:57:09 02:02:13 41° 249° (WSW) 02:07:16 145.827
MOZHAYETS 4 25 Feb 02:13:35 02:18:07 56° 73° (ENE) 02:22:40
RS-15 25 Feb 02:39:27 02:51:44 78° 243° (WSW) 03:03:27 29.354- 29.394
AO-7 25 Feb 02:47:00 02:54:43 41° 99° (E) 03:02:22 .
KKS-1 25 Feb 02:48:19 02:52:17 33° 70° (ENE) 02:56:16 437.445
Oscar 19 25 Feb 02:51:31 02:54:25 15° 298° (WNW) 02:57:20 437.125/150
CUBESAT XI-V 25 Feb 03:12:06 03:16:22 36° 70° (ENE) 03:20:36 437.345
ITAMSAT 1 25 Feb 03:22:25 03:27:39 73° 287° (WNW) 03:32:51 435.822/435.867
ITUPSAT 1 25 Feb 03:23:20 03:24:31 11° 270° (W) 03:25:42 437.325
STARS 25 Feb 03:23:31 03:27:29 35° 70° (ENE) 03:31:29 437.465
Gurwin Techsat 1B 25 Feb 03:33:47 03:35:54 12° 301° (WNW) 03:38:03 435.225
AO-85 25 Feb 03:35:14 03:39:39 46° 117° (ESE) 03:43:46 145.980
MOZHAYETS 4 25 Feb 03:53:12 03:55:35 14° 269° (W) 03:58:00
M-CUBED/EXP-1 PRIME 25 Feb 03:59:25 04:02:41 71° 71° (ENE) 04:05:56 437.505
KKS-1 25 Feb 04:25:32 04:28:53 21° 265° (W) 04:32:16 437.445
AO-7 25 Feb 04:39:44 04:47:29 45° 297° (WNW) 04:55:11 .
CUBESAT XI-V 25 Feb 04:50:13 04:53:47 22° 266° (W) 04:57:23 437.345
RS-15 25 Feb 04:55:03 05:02:00 18° 264° (W) 05:08:49 29.354- 29.394
XW-2F 25 Feb 04:56:09 04:57:38 12° 91° (E) 04:59:07 145.980 - 146.000
BEESAT 3 25 Feb 04:59:09 05:01:49 18° 111° (ESE) 05:04:30 437.485
XW-2D 25 Feb 05:00:00 05:02:08 14° 92° (E) 05:04:17 145.860 - 145.880
STARS 25 Feb 05:00:45 05:03:54 19° 266° (W) 05:07:06 437.465
XW-2B 25 Feb 05:04:48 05:07:13 16° 93° (E) 05:09:37 145.730 - 145.750
STRAND 1 25 Feb 05:06:55 05:10:18 18° 63° (ENE) 05:13:42 437.568
DOVE 4 25 Feb 05:08:25 05:12:24 26° 96° (E) 05:16:31 437.250
XW-2C 25 Feb 05:13:01 05:15:56 20° 94° (E) 05:18:49 145.795 - 145.815
AO-85 25 Feb 05:16:54 05:20:13 20° 313° (NW) 05:23:23 145.980
NUDT-PHONESAT 25 Feb 05:25:56 05:29:01 23° 95° (E) 05:32:04 437.300
LilacSat-2 25 Feb 05:29:02 05:32:33 33° 97° (E) 05:36:02 437.200
BEESAT 2 25 Feb 05:36:34 05:39:21 19° 111° (ESE) 05:42:10 435.950
HO-68 25 Feb 05:44:44 05:46:05 11° 87° (E) 05:47:25 435.675
CUTE-I 25 Feb 06:07:18 06:12:43 75° 104° (ESE) 06:18:04 437.470
KAITUO 1B 25 Feb 06:24:00 06:27:43 58° 285° (WNW) 06:31:24 145.475/437.950
SO-50 25 Feb 06:24:30 06:28:52 47° 53° (NE) 06:33:11 436.795
XW-2F 25 Feb 06:28:23 06:32:01 42° 287° (WNW) 06:35:36 145.980 - 146.000
XW-2D 25 Feb 06:32:57 06:36:28 35° 288° (WNW) 06:39:57 145.860 - 145.880
BEESAT 3 25 Feb 06:35:30 06:39:08 36° 307° (NW) 06:42:49 437.485
XW-2B 25 Feb 06:38:04 06:41:30 32° 288° (WNW) 06:44:54 145.730 - 145.750
XW-2A 25 Feb 06:43:00 06:46:15 36° 99° (E) 06:49:27 145.665 - 145.685
STRAND 1 25 Feb 06:43:58 06:49:00 56° 259° (W) 06:54:05 437.568
DOVE 4 25 Feb 06:45:50 06:50:03 33° 289° (WNW) 06:54:28 437.250
XW-2C 25 Feb 06:46:54 06:50:05 25° 290° (WNW) 06:53:14 145.795 - 145.815
SEEDS 25 Feb 06:48:16 06:51:16 19° 93° (E) 06:54:15 437.485
ISS 25 Feb 06:57:12 07:00:05 28° 134° (SE) 07:02:58 437.550
NUDT-PHONESAT 25 Feb 06:59:55 07:02:50 21° 291° (WNW) 07:05:43 437.300
LilacSat-2 25 Feb 07:04:07 07:06:33 16° 293° (WNW) 07:08:58 437.200
O/OREOS (USA 219) 25 Feb 07:10:57 07:14:12 19° 57° (ENE) 07:17:26 437.305
BEESAT 2 25 Feb 07:13:11 07:16:51 35° 308° (NW) 07:20:34 435.950
Tancredo 1 25 Feb 07:23:06 07:26:18 57° 138° (SE) 07:29:30 437.200
CUTE 1.7 + AOD 2 25 Feb 07:25:10 07:29:25 82° 102° (ESE) 07:33:37 437.475
HO-68 25 Feb 07:27:44 07:34:54 73° 104° (ESE) 07:42:02 435.675
CUBEBUG 2 25 Feb 07:40:58 07:45:39 54° 99° (E) 07:50:15 437.445
PRISM 25 Feb 07:43:50 07:47:12 26° 69° (ENE) 07:50:36 437.425
CUTE-I 25 Feb 07:49:10 07:52:04 15° 300° (WNW) 07:55:00 437.470
UNISAT 6 25 Feb 07:51:31 07:53:54 14° 63° (ENE) 07:56:18 437.425
TIGRISAT 25 Feb 07:52:09 07:54:17 13° 62° (ENE) 07:56:27 435.000
AO-73 25 Feb 07:53:28 07:57:10 24° 94° (E) 08:00:46 145.935
Oscar 11 25 Feb 08:00:29 08:04:00 24° 95° (E) 08:07:28 .
FO-29 25 Feb 08:05:30 08:10:22 19° 56° (NE) 08:15:27 435.910
SO-50 25 Feb 08:05:57 08:08:56 18° 250° (WSW) 08:11:55 436.795
AAUSAT CUBESAT 2 25 Feb 08:12:45 08:16:53 89° 279° (W) 08:20:59 437.432
XW-2A 25 Feb 08:17:14 08:18:39 12° 294° (WNW) 08:20:05 145.665 - 145.685
UWE-3 25 Feb 08:18:48 08:23:32 86° 106° (ESE) 08:28:07 435.000/436.395/437.385
SEEDS 25 Feb 08:23:17 08:27:00 32° 289° (WNW) 08:30:43 437.485
ISS 25 Feb 08:33:28 08:36:29 32° 331° (NNW) 08:39:31 437.550
ZACube-1 25 Feb 08:40:20 08:44:56 87° 109° (ESE) 08:49:24 437.345
O/OREOS (USA 219) 25 Feb 08:49:27 08:53:49 45° 254° (WSW) 08:58:11 437.305
Tancredo 1 25 Feb 09:00:11 09:02:46 21° 336° (NNW) 09:05:23 437.200
HO-68 25 Feb 09:16:43 09:21:55 22° 302° (WNW) 09:27:07 435.675
CUBEBUG 2 25 Feb 09:18:51 09:21:47 16° 296° (WNW) 09:24:41 437.445
PRISM 25 Feb 09:19:08 09:22:26 23° 264° (W) 09:25:44 437.425
UNISAT 6 25 Feb 09:25:38 09:30:03 58° 259° (W) 09:34:37 437.425
TIGRISAT 25 Feb 09:25:57 09:30:23 63° 259° (W) 09:34:57 435.000
AO-73 25 Feb 09:29:23 09:33:22 31° 290° (WNW) 09:37:17 145.935
Oscar 11 25 Feb 09:36:23 09:40:05 28° 290° (WNW) 09:43:46 .
YUBILEINY 25 Feb 09:41:29 09:50:01 58° 91° (E) 09:58:34 435.215
DELFI C3 25 Feb 09:46:48 09:50:41 62° 285° (WNW) 09:54:33 145.870
FO-29 25 Feb 09:47:09 09:54:14 90° 246° (WSW) 10:02:03 435.910
UWE-3 25 Feb 09:58:38 09:59:12 10° 299° (WNW) 09:59:46 435.000/436.395/437.385
ESTCUBE 1 25 Feb 10:00:17 10:00:59 10° 90° (E) 10:01:39 437.505/2401.250
ISS 25 Feb 10:12:20 10:13:44 12° 350° (N) 10:15:09 437.550
DUCHIFAT 1 25 Feb 10:16:04 10:19:52 34° 71° (ENE) 10:23:42 145.980
EO-79 25 Feb 10:26:24 10:30:31 54° 74° (ENE) 10:34:40 145.935-145.965
LO-87 25 Feb 10:31:36 10:35:06 49° 99° (E) 10:38:36 145.935 - 145.965
Tancredo 1 25 Feb 10:39:15 10:40:01 11° 356° (N) 10:40:48 437.200
AIST 2D 25 Feb 10:40:39 10:44:07 52° 260° (W) 10:47:38 435.315
NANOSAT C BR1 25 Feb 10:43:21 10:47:32 80° 78° (ENE) 10:51:48 145.865
POLYITAN 1 25 Feb 10:43:46 10:48:00 88° 85° (E) 10:52:18 437.675
QB50P2 25 Feb 10:46:46 10:50:59 79° 257° (WSW) 10:55:16 145.880/145.840
Oscar 19 25 Feb 10:51:43 10:53:10 11° 59° (ENE) 10:54:39 437.125/150
BUGSAT 1 25 Feb 11:13:10 11:17:05 51° 73° (ENE) 11:21:05 437.445
ESTCUBE 1 25 Feb 11:33:46 11:38:13 69° 286° (WNW) 11:42:39 437.505/2401.250
Gurwin Techsat 1B 25 Feb 11:34:23 11:37:40 17° 62° (ENE) 11:40:56 435.225
FO-29 25 Feb 11:36:08 11:40:17 16° 275° (W) 11:44:39 435.910
YUBILEINY 25 Feb 11:39:42 11:47:14 31° 290° (WNW) 11:54:48 435.215
ISS 25 Feb 11:49:51 11:51:21 12° 11° (N) 11:52:51 437.550
DX 1 25 Feb 11:51:19 11:54:53 24° 96° (E) 11:58:27 434.975-435.025
DUCHIFAT 1 25 Feb 11:52:39 11:55:36 19° 266° (W) 11:58:36 145.980
VELOX 1 25 Feb 11:59:07 12:03:32 72° 102° (ESE) 12:07:57 145.980
AO-7 25 Feb 11:59:33 12:02:01 12° 44° (NE) 12:04:29 .
UKube-1 25 Feb 12:03:30 12:06:59 24° 96° (E) 12:10:28 .
EO-79 25 Feb 12:05:02 12:06:37 12° 269° (W) 12:08:11 145.935-145.965
SPROUT 25 Feb 12:07:15 12:11:34 75° 101° (E) 12:15:52 437.525
AO-85 25 Feb 12:07:23 12:10:48 28° 51° (NE) 12:14:15 145.980
LO-87 25 Feb 12:07:35 12:08:07 10° 295° (WNW) 12:08:38 145.935 - 145.965
Tancredo 1 25 Feb 12:15:27 12:17:24 15° 17° (NNE) 12:19:21 437.200
Oscar 19 25 Feb 12:26:32 12:31:42 88° 79° (E) 12:36:52 437.125/150
50 SAT 25 Feb 12:33:29 12:36:52 51° 285° (WNW) 12:40:14 437.505
BUGSAT 1 25 Feb 12:51:19 12:52:46 12° 269° (W) 12:54:13 437.445
ITAMSAT 1 25 Feb 13:02:02 13:05:45 20° 63° (ENE) 13:09:27 435.822/435.867
Gurwin Techsat 1B 25 Feb 13:11:47 13:17:02 64° 258° (WSW) 13:22:21 435.225
BEESAT 3 25 Feb 13:16:58 13:18:26 12° 41° (NE) 13:19:54 437.485
ISS 25 Feb 13:25:29 13:28:34 35° 30° (NNE) 13:31:37 437.550
DX 1 25 Feb 13:27:18 13:31:02 28° 291° (WNW) 13:34:45 434.975-435.025
VELOX 1 25 Feb 13:38:09 13:39:23 11° 298° (WNW) 13:40:36 145.980
UKube-1 25 Feb 13:39:16 13:42:59 29° 291° (WNW) 13:46:41 .
ITUPSAT 1 25 Feb 13:43:31 13:47:02 20° 94° (E) 13:50:31 437.325
AO-7 25 Feb 13:44:52 13:52:52 53° 65° (ENE) 14:00:53 .
SPROUT 25 Feb 13:46:19 13:46:51 10° 298° (WNW) 13:47:24 437.525
AO-85 25 Feb 13:47:56 13:51:03 23° 247° (WSW) 13:54:13 145.980
BEESAT 25 Feb 13:49:47 13:53:38 24° 95° (E) 13:57:27 436.000
Tancredo 1 25 Feb 13:51:00 13:54:12 62° 35° (NE) 13:57:23 437.200
BEESAT 2 25 Feb 13:55:09 13:56:53 12° 42° (NE) 13:58:36 435.950
MOZHAYETS 4 25 Feb 14:10:59 14:13:18 14° 91° (E) 14:15:36
ITAMSAT 1 25 Feb 14:39:44 14:44:47 51° 260° (W) 14:49:53 435.822/435.867
BEESAT 3 25 Feb 14:52:34 14:56:36 85° 243° (WSW) 15:00:35 437.485
RS-15 25 Feb 14:54:23 15:01:16 18° 96° (E) 15:08:15 29.354- 29.394
PCSat 25 Feb 14:55:14 14:59:46 28° 108° (ESE) 15:04:21 145.827
ISS 25 Feb 15:02:10 15:04:55 25° 227° (SW) 15:07:39 437.550
ITUPSAT 1 25 Feb 15:20:30 15:25:00 41° 289° (WNW) 15:29:28 437.325
BEESAT 25 Feb 15:27:07 15:31:27 35° 291° (WNW) 15:35:45 436.000
Tancredo 1 25 Feb 15:28:34 15:30:06 13° 231° (SW) 15:31:38 437.200
BEESAT 2 25 Feb 15:31:07 15:35:12 80° 239° (WSW) 15:39:13 435.950
AO-7 25 Feb 15:38:26 15:45:50 34° 262° (W) 15:53:17 .
MOZHAYETS 4 25 Feb 15:46:17 15:50:48 55° 287° (WNW) 15:55:15
CUTE-I 25 Feb 15:51:26 15:54:19 15° 60° (ENE) 15:57:13 437.470
NO-84 25 Feb 15:52:59 15:55:45 29° 128° (SE) 15:58:44 435.350 FM
XW-2C 25 Feb 15:56:22 15:56:35 10° 64° (ENE) 15:56:49 145.795 - 145.815
NUDT-PHONESAT 25 Feb 16:06:50 16:07:45 11° 65° (ENE) 16:08:40 437.300
LilacSat-2 25 Feb 16:11:01 16:13:28 16° 67° (ENE) 16:15:57 437.200
DOVE 4 25 Feb 16:14:16 16:17:17 20° 67° (ENE) 16:20:21 437.250
KKS-1 25 Feb 16:15:40 16:20:09 76° 102° (ESE) 16:24:38 437.445
PCSat 25 Feb 16:37:55 16:42:59 40° 306° (NW) 16:48:05 145.827
CUBESAT XI-V 25 Feb 16:46:02 16:50:39 83° 282° (WNW) 16:55:13 437.345
STARS 25 Feb 16:49:08 16:53:35 78° 103° (ESE) 16:58:01 437.465
RS-15 25 Feb 16:59:42 17:11:32 78° 117° (ESE) 17:23:53 29.354- 29.394
KAITUO 1B 25 Feb 17:02:52 17:06:34 53° 74° (ENE) 17:10:18 145.475/437.950
XW-2F 25 Feb 17:07:53 17:11:43 75° 77° (ENE) 17:15:35 145.980 - 146.000
M-CUBED/EXP-1 PRIME 25 Feb 17:11:41 17:15:28 60° 106° (ESE) 17:19:33 437.505
XW-2D 25 Feb 17:12:41 17:16:31 88° 258° (WSW) 17:20:24 145.860 - 145.880
XW-2A 25 Feb 17:15:32 17:16:50 12° 66° (ENE) 17:18:07 145.665 - 145.685
XW-2B 25 Feb 17:17:44 17:21:35 79° 258° (WSW) 17:25:28 145.730 - 145.750
XW-2C 25 Feb 17:26:27 17:30:15 59° 259° (W) 17:34:05 145.795 - 145.815
CUTE-I 25 Feb 17:28:23 17:33:42 74° 257° (WSW) 17:39:05 437.470
NO-84 25 Feb 17:30:32 17:33:23 27° 328° (NNW) 17:36:29 435.350 FM
NUDT-PHONESAT 25 Feb 17:37:31 17:41:12 52° 260° (W) 17:44:55 437.300
SEEDS 25 Feb 17:40:16 17:42:16 13° 65° (ENE) 17:44:17 437.485
